Location: Chassagnes
(44.4047°N, 4.1657°E)
Time: 12:11:30
(UTC+00:00)

GEOS 3 Rocket - Pass Details

Date: 27 October 2020
Orbit: 770 x 850 km, 115.0° (Epoch: 23 November)

Event Time Altitude Azimuth Distance (km) Brightness Sun altitude
Exits shadow 19:05:41 67° 165° (SSE) 905 3.6 -26.7°
Maximum altitude 19:06:24 81° 233° (SW) 851 3.6 -26.8°
Drops below altitude 10° 19:11:49 10° 321° (NW) 2,473 6.7 -27.8°
Sets 19:14:10 0° 322° (NW) 3,417 7.5 -28.2°
